Terminal Aerodrome Forecast
Issued by NWS

Home | Current Version | Previous Version | Text Only | Print | Product List | Glossary On
Versions: 1 2 3 4 5 6 7 8 9 10 11 12 13 14 15 16 17 18 19 20 21 22 23 24
000
FTUS44 KTSA 182300
TAFFYV
TAF
KFYV 182320Z 1900/1924 07006KT P6SM BKN050
     FM190200 00000KT P6SM SCT250
     FM190800 00000KT 3SM BR SCT010
      TEMPO 1910/1913 1SM BR BKN008
     FM191600 16005KT P6SM SCT040=

USA.gov is the U.S. government's official web portal to all federal, state and local government web resources and services.